Tracking 29089 objects as of 12-Jul-2024
HD Live streaming from Space Station
objects crossing your sky now

COSMOS 1275 DEB

Track COSMOS 1275 DEB now!
10-day predictions


NORAD ID: 42183
Int'l Code: 1981-053SX
Perigee: 916.7 km
Apogee: 988.4 km
Inclination: 82.9 °
Period: 104.0 minutes
Semi major axis: 7323 km
RCS: Unknown
Launch date: June 4, 1981
Source: Commonwealth of Independent States (former USSR) (CIS)
Launch site: PLESETSK MISSILE AND SPACE COMPLEX (PKMTR)

Note: This is SATELLITE DEBRIS
Your satellite tracking list
Your tracking list is empty




NASA's NSSDC Master Catalog

Two Line Element Set (TLE):
1 42183U 81053SX  24187.31052743  .00001011  00000-0  87007-3 0  9990
2 42183  82.9375  27.7537 0048970 303.0995 234.0273 13.85220904515963
Source of the keplerian elements: AFSPC